Location: *
(37.5724°S, 58.0067°E)
Time: 04:55:00
(UTC+00:00)

Cosmos 1933 Rocket - Pass Details

Date: 25 January 2021
Orbit: 607 x 630 km, 82.5° (Epoch: 06 March)

Event Time Altitude Azimuth Distance (km) Brightness Sun altitude
Rises 17:49:00 0° 163° (SSE) 2,958 7.5 -23.3°
Reaches altitude 10° 17:53:10 10° 125° (SE) 2,035 6.2 -23.9°
Enters shadow 17:53:23 10° 123° (ESE) 2,015 6.1 -23.9°
